EW9092 Weather Reports


Display with metric or nautical units.
time (UTC)temp
F
wind
direction
speed
MPH
gust
MPH
rain 1hr
in
rain 24hr
in
rain mn
in
humidity
%
barometer
mb
20260904042153 81 108 1.0 3.0 0.00 0.00 0.00 60 1015.2
20260904041654 81 80 1.0 4.0 0.00 0.00 0.00 59 1015.2
20260904041154 81 68 1.0 4.0 0.00 0.00 0.00 59 1015.2
20260904040656 82 74 3.0 7.0 0.00 0.00 0.00 59 1015.2
20260904040154 82 59 3.0 8.0 0.00 0.00 0.00 59 1015.1
20260904035654 82 64 4.0 8.0 0.00 0.00 0.00 58 1015.1
20260904035155 82 79 4.0 8.0 0.00 0.00 0.00 58 1015.1
20260904034655 82 84 4.0 10.0 0.00 0.00 0.00 58 1015.1
20260904034154 82 60 4.0 10.0 0.00 0.00 0.00 58 1015.1
20260904033653 82 78 4.0 9.0 0.00 0.00 0.00 58 1015.0
20260904033415 82 58 4.0 9.0 0.00 0.00 0.00 58 1014.9
20260904032654 83 61 4.0 8.0 0.00 0.00 0.00 57 1014.8
20260904032412 83 75 3.0 7.0 0.00 0.00 0.00 57 1014.9
20260904031919 83 78 1.0 7.0 0.00 0.00 0.00 55 1014.8
20260904031418 83 116 0.0 3.0 0.00 0.00 0.00 55 1014.6
20260904030655 83 90 0.0 3.0 0.00 0.00 0.00 55 1014.6
20260904030153 83 223 1.0 2.0 0.00 0.00 0.00 55 1014.5
20260904025653 83 115 1.0 2.0 0.00 0.00 0.00 55 1014.4
20260904025415 83 84 0.0 2.0 0.00 0.00 0.00 55 1014.4
20260904024656 83 84 1.0 5.0 0.00 0.00 0.00 55 1014.2
20260904024152 83 128 2.0 6.0 0.00 0.00 0.00 55 1014.1
20260904023656 83 86 2.0 8.0 0.00 0.00 0.00 55 1014.0
20260904023155 83 167 2.0 8.0 0.00 0.00 0.00 55 1014.0
20260904022649 83 247 1.0 4.0 0.00 0.00 0.00 54 1013.9
20260904022149 83 136 2.0 4.0 0.00 0.00 0.00 54 1013.8
20260904021649 83 166 2.0 5.0 0.00 0.00 0.00 54 1013.8
20260904021143 83 231 2.0 5.0 0.00 0.00 0.00 55 1013.7
20260904020644 83 132 3.0 8.0 0.00 0.00 0.00 55 1013.7
20260904020143 83 145 4.0 8.0 0.00 0.00 0.00 55 1013.7
20260904015643 84 191 4.0 8.0 0.00 0.00 0.00 55 1013.6
20260904015143 84 148 4.0 10.0 0.00 0.00 0.00 55 1013.5
20260904014643 84 159 4.0 13.0 0.00 0.00 0.00 55 1013.4
20260904014143 84 252 4.0 13.0 0.00 0.00 0.00 54 1013.4
20260904013907 85 244 4.0 10.0 0.00 0.00 0.00 53 1013.3
20260904013141 85 226 4.0 11.0 0.00 0.00 0.00 53 1013.3
20260904012641 85 155 5.0 11.0 0.00 0.00 0.00 53 1013.2
20260904012141 85 188 5.0 11.0 0.00 0.00 0.00 53 1013.3
20260904011643 86 193 5.0 11.0 0.00 0.00 0.00 53 1013.2
20260904011140 86 137 6.0 13.0 0.00 0.00 0.00 52 1013.1
20260904010641 87 164 6.0 13.0 0.00 0.00 0.00 52 1013.1
20260904010137 87 193 6.0 12.0 0.00 0.00 0.00 51 1013.1
20260904005631 87 200 6.0 12.0 0.00 0.00 0.00 49 1013.1
20260904005125 88 250 6.0 13.0 0.00 0.00 0.00 48 1013.1
20260904004855 88 276 6.0 13.0 0.00 0.00 0.00 48 1013.1
20260904004126 88 213 5.0 11.0 0.00 0.00 0.00 50 1013.2
20260904003627 88 168 5.0 11.0 0.00 0.00 0.00 49 1013.1
20260904003127 89 153 5.0 9.0 0.00 0.00 0.00 46 1012.9
20260904002628 89 217 5.0 9.0 0.00 0.00 0.00 45 1012.8
20260904002125 90 211 6.0 11.0 0.00 0.00 0.00 44 1012.8
20260904001625 90 221 5.0 11.0 0.00 0.00 0.00 45 1012.8
20260904001121 90 220 4.0 10.0 0.00 0.00 0.00 46 1012.8
20260904000840 90 193 4.0 10.0 0.00 0.00 0.00 47 1012.8
20260904000123 89 227 4.0 9.0 0.00 0.00 0.00 48 1012.8
20260903235620 89 213 6.0 11.0 0.00 0.00 0.00 49 1013.1
20260903235120 88 242 7.0 12.0 0.00 0.00 0.00 49 1012.9
20260903235112 89 210 6.0 13.0 0.00 0.00 0.00 48 1012.9
20260903234124 89 191 5.0 13.0 0.00 0.00 0.00 48 1012.9
20260903233617 90 195 4.0 10.0 0.00 0.00 0.00 44 1012.9
20260903233112 90 214 4.0 9.0 0.00 0.00 0.00 42 1012.8
20260903232602 90 228 4.0 9.0 0.00 0.00 0.00 41 1012.8
20260903232054 90 217 3.0 8.0 0.00 0.00 0.00 42 1012.8
20260903232032 90 228 4.0 8.0 0.00 0.00 0.00 42 1012.8
20260903231038 91 246 3.0 8.0 0.00 0.00 0.00 42 1012.8
20260903230755 91 240 3.0 6.0 0.00 0.00 0.00 42 1012.8
20260903230257 91 274 3.0 7.0 0.00 0.00 0.00 41 1012.9
20260903225536 91 242 3.0 8.0 0.00 0.00 0.00 42 1012.8
20260903225033 91 238 4.0 8.0 0.00 0.00 0.00 41 1012.8
20260903224756 91 218 3.0 8.0 0.00 0.00 0.00 41 1012.8
20260903224035 92 191 2.0 6.0 0.00 0.00 0.00 41 1012.8
20260903223803 92 219 3.0 6.0 0.00 0.00 0.00 41 1012.8
20260903223031 92 217 3.0 6.0 0.00 0.00 0.00 40 1012.8
20260903222535 92 257 2.0 6.0 0.00 0.00 0.00 40 1012.8
20260903222032 92 255 2.0 5.0 0.00 0.00 0.00 39 1012.8
20260903221532 92 243 2.0 7.0 0.00 0.00 0.00 39 1012.8
20260903221030 92 279 3.0 7.0 0.00 0.00 0.00 39 1013.1
20260903220527 93 186 3.0 6.0 0.00 0.00 0.00 39 1013.2
20260903220027 93 228 2.0 7.0 0.00 0.00 0.00 39 1013.1
20260903215528 93 270 2.0 7.0 0.00 0.00 0.00 39 1013.2
20260903215022 94 248 4.0 9.0 0.00 0.00 0.00 38 1013.3
20260903214521 94 268 3.0 11.0 0.00 0.00 0.00 37 1013.4
20260903214021 95 198 1.0 11.0 0.00 0.00 0.00 37 1013.3
20260903213526 94 234 3.0 8.0 0.00 0.00 0.00 38 1013.4
20260903213020 94 240 2.0 8.0 0.00 0.00 0.00 38 1013.4
20260903212519 95 245 1.0 5.0 0.00 0.00 0.00 36 1013.4
20260903212021 94 127 1.0 6.0 0.00 0.00 0.00 38 1013.6
20260903211518 94 216 2.0 6.0 0.00 0.00 0.00 38 1013.6
20260903211017 93 329 2.0 6.0 0.00 0.00 0.00 38 1013.6
20260903210517 93 217 3.0 6.0 0.00 0.00 0.00 38 1013.7
20260903210017 94 234 2.0 7.0 0.00 0.00 0.00 38 1013.8
20260903205750 94 184 3.0 7.0 0.00 0.00 0.00 37 1013.8
20260903205017 94 266 2.0 7.0 0.00 0.00 0.00 38 1013.9
20260903204517 94 196 1.0 5.0 0.00 0.00 0.00 38 1014.0
20260903204018 93 240 2.0 4.0 0.00 0.00 0.00 39 1014.1
20260903203512 92 286 3.0 7.0 0.00 0.00 0.00 40 1014.1
20260903203006 92 221 3.0 7.0 0.00 0.00 0.00 40 1014.2
20260903202459 93 246 1.0 6.0 0.00 0.00 0.00 39 1014.4
20260903202000 92 91 1.0 3.0 0.00 0.00 0.00 40 1014.4
20260903201457 91 79 2.0 6.0 0.00 0.00 0.00 42 1014.5
20260903201218 91 273 3.0 8.0 0.00 0.00 0.00 41 1014.7
20260903200454 92 143 3.0 8.0 0.00 0.00 0.00 41 1014.8
20260903195953 92 335 2.0 7.0 0.00 0.00 0.00 41 1014.8
20260903195546 93 260 2.0 7.0 0.00 0.00 0.00 40 1014.9
20260903194449 93 248 1.0 5.0 0.00 0.00 0.00 41 1015.1
20260903194208 91 280 2.0 8.0 0.00 0.00 0.00 42 1015.1
20260903193449 91 203 2.0 8.0 0.00 0.00 0.00 42 1015.3
20260903192949 92 347 1.0 5.0 0.00 0.00 0.00 41 1015.3
20260903192452 91 194 1.0 5.0 0.00 0.00 0.00 43 1015.4
20260903191950 89 257 2.0 8.0 0.00 0.00 0.00 44 1015.4
20260903191537 89 275 3.0 8.0 0.00 0.00 0.00 45 1015.5
20260903190448 90 279 2.0 4.0 0.00 0.00 0.00 44 1015.8
20260903190206 89 233 2.0 7.0 0.00 0.00 0.00 45 1015.9
20260903185707 89 151 2.0 8.0 0.00 0.00 0.00 45 1015.9
20260903185207 88 226 3.0 8.0 0.00 0.00 0.00 46 1016.0
20260903184442 88 260 3.0 8.0 0.00 0.00 0.00 46 1016.1
20260903183941 88 270 3.0 7.0 0.00 0.00 0.00 46 1016.1
20260903183658 88 252 3.0 7.0 0.00 0.00 0.00 46 1016.3
20260903183157 88 234 4.0 6.0 0.00 0.00 0.00 46 1016.3
20260903182442 88 171 3.0 7.0 0.00 0.00 0.00 46 1016.3
20260903181939 88 250 3.0 7.0 0.00 0.00 0.00 47 1016.4
20260903181438 87 236 2.0 6.0 0.00 0.00 0.00 47 1016.5
20260903180940 87 233 3.0 6.0 0.00 0.00 0.00 47 1016.5
20260903180439 88 92 2.0 6.0 0.00 0.00 0.00 47 1016.6
20260903175940 88 239 2.0 6.0 0.00 0.00 0.00 47 1016.6
20260903175440 87 257 3.0 6.0 0.00 0.00 0.00 48 1016.6
20260903175152 87 115 2.0 6.0 0.00 0.00 0.00 48 1016.7
20260903174424 87 134 2.0 6.0 0.00 0.00 0.00 49 1016.7
20260903174137 87 173 3.0 6.0 0.00 0.00 0.00 50 1016.8
20260903173408 87 184 3.0 7.0 0.00 0.00 0.00 49 1017.0
20260903172903 87 217 2.0 7.0 0.00 0.00 0.00 48 1017.0
20260903172403 87 140 2.0 6.0 0.00 0.00 0.00 50 1017.0
20260903172130 86 203 3.0 5.0 0.00 0.00 0.00 51 1017.0
20260903171403 86 240 2.0 5.0 0.00 0.00 0.00 51 1017.0
20260903170903 87 216 1.0 5.0 0.00 0.00 0.00 51 1017.0
20260903170401 87 243 1.0 3.0 0.00 0.00 0.00 50 1017.0
20260903170126 87 110 0.0 3.0 0.00 0.00 0.00 51 1017.0
20260903165403 86 79 1.0 3.0 0.00 0.00 0.00 52 1017.0
20260903164900 86 146 1.0 5.0 0.00 0.00 0.00 53 1017.0
20260903164402 85 146 1.0 5.0 0.00 0.00 0.00 54 1017.0
20260903163857 85 91 1.0 3.0 0.00 0.00 0.00 54 1017.0
20260903163357 84 141 1.0 4.0 0.00 0.00 0.00 55 1017.0
20260903162857 83 89 1.0 4.0 0.00 0.00 0.00 56 1017.0
20260903162356 83 119 1.0 5.0 0.00 0.00 0.00 56 1017.1
20260903161858 83 128 1.0 5.0 0.00 0.00 0.00 56 1017.1
20260903161358 83 233 1.0 4.0 0.00 0.00 0.00 56 1017.0
20260903161119 84 212 1.0 4.0 0.00 0.00 0.00 56 1017.1
20260903160358 84 129 1.0 3.0 0.00 0.00 0.00 55 1017.1
20260903155858 83 143 1.0 3.0 0.00 0.00 0.00 56 1017.2
20260903155357 83 163 0.0 2.0 0.00 0.00 0.00 57 1017.2
20260903154857 83 174 0.0 2.0 0.00 0.00 0.00 58 1017.2
20260903154358 82 136 0.0 2.0 0.00 0.00 0.00 59 1017.1
20260903153856 82 219 1.0 3.0 0.00 0.00 0.00 59 1017.1
20260903153358 82 271 1.0 3.0 0.00 0.00 0.00 59 1017.1
20260903152856 81 138 1.0 3.0 0.00 0.00 0.00 60 1017.1
20260903152358 81 207 0.0 2.0 0.00 0.00 0.00 59 1017.2
20260903151856 81 143 0.0 3.0 0.00 0.00 0.00 60 1017.1
20260903151356 81 150 1.0 3.0 0.00 0.00 0.00 60 1017.2
20260903150856 81 161 0.0 3.0 0.00 0.00 0.00 60 1017.1
20260903150358 81 137 1.0 4.0 0.00 0.00 0.00 60 1017.1
20260903145856 81 150 1.0 4.0 0.00 0.00 0.00 61 1017.1
20260903145356 81 141 1.0 4.0 0.00 0.00 0.00 61 1017.1
20260903144856 81 146 0.0 2.0 0.00 0.00 0.00 62 1017.1
20260903144354 80 235 0.0 3.0 0.00 0.00 0.00 63 1017.1
20260903143856 80 238 0.0 3.0 0.00 0.00 0.00 63 1017.0
20260903143352 80 230 0.0 1.0 0.00 0.00 0.00 65 1017.0
20260903143110 80 152 0.0 1.0 0.00 0.00 0.00 66 1017.0
20260903142337 79 188 1.0 3.0 0.00 0.00 0.00 66 1017.1
20260903141831 79 136 1.0 4.0 0.00 0.00 0.00 66 1017.1
20260903141320 79 169 1.0 4.0 0.00 0.00 0.00 67 1017.1
20260903140814 79 127 0.0 0.0 0.00 0.00 0.00 67 1017.0
20260903140309 79 237 0.0 0.0 0.00 0.00 0.00 67 1017.0
20260903135759 78 237 0.0 0.0 0.00 0.00 0.00 67 1016.8
20260903135517 78 237 0.0 0.0 0.00 0.00 0.00 67 1016.8
20260903135011 78 237 0.0 0.0 0.00 0.00 0.00 67 1016.7
20260903134236 78 237 0.0 0.0 0.00 0.00 0.00 67 1016.7
20260903133731 78 237 0.0 0.0 0.00 0.00 0.00 67 1016.7
20260903133224 78 237 0.0 0.0 0.00 0.00 0.00 67 1016.7
20260903132715 78 239 1.0 2.0 0.00 0.00 0.00 67 1016.6
20260903132208 78 218 1.0 2.0 0.00 0.00 0.00 67 1016.6
20260903131703 78 269 1.0 5.0 0.00 0.00 0.00 66 1016.5
20260903131152 79 254 1.0 5.0 0.00 0.00 0.00 66 1016.5
20260903130646 79 221 1.0 4.0 0.00 0.00 0.00 65 1016.4
20260903130141 79 212 2.0 4.0 0.00 0.00 0.00 65 1016.3
20260903125631 79 195 3.0 7.0 0.00 0.00 0.00 64 1016.2
20260903125122 79 226 3.0 7.0 0.00 0.00 0.00 64 1016.2
20260903124618 79 214 2.0 5.0 0.00 0.00 0.00 64 1016.2
20260903124108 79 161 3.0 5.0 0.00 0.00 0.00 64 1016.1
20260903123601 79 134 2.0 5.0 0.00 0.00 0.00 64 1016.1
20260903123320 79 143 1.0 4.0 0.00 0.00 0.00 64 1016.0
20260903122544 79 146 1.0 2.0 0.00 0.00 0.00 65 1016.0
20260903122041 79 143 0.0 2.0 0.00 0.00 0.00 65 1016.0
20260903121535 79 131 0.0 2.0 0.00 0.00 0.00 65 1016.0
20260903121024 79 245 0.0 0.0 0.00 0.00 0.00 64 1015.9
20260903120518 79 245 0.0 0.0 0.00 0.00 0.00 63 1015.8
20260903120012 79 245 0.0 0.0 0.00 0.00 0.00 62 1015.8
20260903115502 79 148 0.0 0.0 0.00 0.00 0.00 62 1015.7
20260903114956 79 135 0.0 1.0 0.00 0.00 0.00 62 1015.7
20260903114451 79 118 1.0 3.0 0.00 0.00 0.00 62 1015.7
20260903113940 79 141 1.0 3.0 0.00 0.00 0.00 62 1015.7
20260903113434 79 130 0.0 2.0 0.00 0.00 0.00 62 1015.8
20260903112928 79 221 0.0 2.0 0.00 0.00 0.00 63 1015.7
20260903112643 79 184 0.0 2.0 0.00 0.00 0.00 63 1015.8
20260903112143 79 232 0.0 0.0 0.00 0.00 0.00 63 1015.7
20260903111406 79 232 0.0 1.0 0.00 0.00 0.00 63 1015.8
20260903110857 79 232 0.0 1.0 0.00 0.00 0.00 63 1015.7
20260903110829 79 170 0.0 1.0 0.00 0.00 0.00 63 1015.7
20260903105844 79 170 0.0 2.0 0.00 0.00 0.00 63 1015.7
20260903105335 79 200 1.0 5.0 0.00 0.00 0.00 63 1015.7
20260903104828 79 143 1.0 5.0 0.00 0.00 0.00 63 1015.7
20260903104538 79 181 2.0 4.0 0.00 0.00 0.00 64 1015.8
20260903104029 79 101 2.0 6.0 0.00 0.00 0.00 65 1015.8
20260903103305 79 141 2.0 6.0 0.00 0.00 0.00 65 1015.8
20260903102801 79 211 2.0 4.0 0.00 0.00 0.00 65 1015.9
20260903102250 79 175 2.0 6.0 0.00 0.00 0.00 65 1015.9
20260903101744 79 134 2.0 6.0 0.00 0.00 0.00 65 1015.9
20260903101238 79 218 2.0 6.0 0.00 0.00 0.00 65 1015.9
20260903100726 79 159 3.0 6.0 0.00 0.00 0.00 65 1015.9
20260903100220 79 153 3.0 8.0 0.00 0.00 0.00 65 1016.0
20260903095204 79 154 2.0 7.0 0.00 0.00 0.00 65 1016.0
20260903094700 79 131 2.0 7.0 0.00 0.00 0.00 65 1015.9
20260903094424 79 161 2.0 4.0 0.00 0.00 0.00 65 1015.9
20260903093657 79 127 2.0 6.0 0.00 0.00 0.00 65 1015.9
20260903093421 79 180 2.0 6.0 0.00 0.00 0.00 65 1015.9
20260903092654 79 101 2.0 6.0 0.00 0.00 0.00 65 1016.0
20260903092154 79 122 2.0 6.0 0.00 0.00 0.00 65 1016.0
20260903091912 79 122 3.0 7.0 0.00 0.00 0.00 65 1016.0
20260903091154 79 134 3.0 7.0 0.00 0.00 0.00 65 1016.0
20260903090654 79 128 2.0 7.0 0.00 0.00 0.00 64 1016.0
20260903090201 79 162 2.0 7.0 0.00 0.00 0.00 64 1016.0
20260903085654 79 155 2.0 5.0 0.00 0.00 0.00 64 1016.0
20260903085155 80 189 2.0 5.0 0.00 0.00 0.00 64 1016.0
20260903084920 80 150 2.0 5.0 0.00 0.00 0.00 64 1016.0
20260903084412 80 169 1.0 5.0 0.00 0.00 0.00 64 1016.0
20260903083656 80 210 1.0 5.0 0.00 0.00 0.00 64 1016.0
20260903083414 80 173 1.0 5.0 0.00 0.00 0.00 63 1016.0
20260903082914 80 167 2.0 5.0 0.00 0.00 0.00 63 1016.0
20260903082148 80 148 1.0 5.0 0.00 0.00 0.00 63 1016.1
20260903081647 80 185 1.0 5.0 0.00 0.00 0.00 63 1016.1
20260903081147 80 152 1.0 4.0 0.00 0.00 0.00 63 1016.1
20260903080645 80 125 1.0 4.0 0.00 0.00 0.00 62 1016.0
20260903080144 80 244 1.0 4.0 0.00 0.00 0.00 62 1016.0
20260903075902 80 227 1.0 4.0 0.00 0.00 0.00 62 1016.0
20260903075144 80 118 2.0 7.0 0.00 0.00 0.00 61 1016.0
20260903074644 81 151 2.0 7.0 0.00 0.00 0.00 61 1016.0
20260903074144 81 148 2.0 6.0 0.00 0.00 0.00 61 1016.0
20260903073647 81 173 2.0 7.0 0.00 0.00 0.00 61 1016.0
20260903073412 81 152 3.0 7.0 0.00 0.00 0.00 61 1016.0
20260903072644 81 186 3.0 6.0 0.00 0.00 0.00 61 1016.0
20260903072407 81 134 2.0 7.0 0.00 0.00 0.00 60 1016.1
20260903071640 81 168 3.0 7.0 0.00 0.00 0.00 61 1016.1
20260903071132 81 103 3.0 7.0 0.00 0.00 0.00 60 1016.1
20260903070850 81 148 3.0 6.0 0.00 0.00 0.00 60 1016.1
20260903070128 81 171 1.0 5.0 0.00 0.00 0.00 60 1016.0
20260903065628 81 133 1.0 3.0 0.00 0.00 0.00 60 1016.0
20260903065347 81 120 1.0 3.0 0.00 0.00 0.00 60 1015.9
20260903064624 81 133 1.0 3.0 0.00 0.00 0.00 60 1015.9
20260903064124 81 133 0.0 2.0 0.00 0.00 0.00 60 1015.8
20260903063628 81 136 0.0 1.0 0.00 0.00 0.00 60 1015.9
20260903063123 81 139 0.0 0.0 0.00 0.00 0.00 60 1016.0
20260903062620 81 200 0.0 0.0 0.00 0.00 0.00 60 1016.0
20260903062120 81 269 0.0 0.0 0.00 0.00 0.00 60 1016.0
20260903061843 82 269 0.0 2.0 0.00 0.00 0.00 60 1016.0
20260903061119 82 248 1.0 3.0 0.00 0.00 0.00 59 1016.1
20260903060618 82 131 1.0 3.0 0.00 0.00 0.00 59 1015.9
20260903060118 82 150 1.0 3.0 0.00 0.00 0.00 59 1015.9
20260903055615 82 215 0.0 2.0 0.00 0.00 0.00 58 1015.9
20260903055120 82 219 0.0 2.0 0.00 0.00 0.00 58 1016.0
20260903054610 82 221 1.0 3.0 0.00 0.00 0.00 57 1016.0
20260903054104 83 217 1.0 5.0 0.00 0.00 0.00 56 1016.0
20260903053819 83 152 2.0 6.0 0.00 0.00 0.00 56 1016.1
20260903053313 83 154 2.0 6.0 0.00 0.00 0.00 55 1016.1
20260903052819 83 245 2.0 7.0 0.00 0.00 0.00 54 1016.1
20260903052055 83 178 2.0 7.0 0.00 0.00 0.00 53 1016.1
20260903051554 84 200 3.0 9.0 0.00 0.00 0.00 52 1016.1
20260903051053 84 223 3.0 9.0 0.00 0.00 0.00 51 1016.2
20260903050554 84 231 2.0 4.0 0.00 0.00 0.00 50 1016.2
20260903050052 84 240 1.0 4.0 0.00 0.00 0.00 50 1016.1
20260903045550 84 211 0.0 3.0 0.00 0.00 0.00 50 1016.0
20260903045050 84 171 1.0 3.0 0.00 0.00 0.00 50 1016.0
20260903044802 84 217 1.0 4.0 0.00 0.00 0.00 50 1016.0
20260903044048 84 169 1.0 4.0 0.00 0.00 0.00 49 1016.0
20260903043542 84 163 1.0 4.0 0.00 0.00 0.00 50 1015.9
20260903043046 84 139 1.0 3.0 0.00 0.00 0.00 50 1015.9
20260903042546 84 221 0.0 1.0 0.00 0.00 0.00 50 1015.8